Wind_Speed
48 43 40 45 45 46 44 46 49 51 57 62 68 71 77 84 82 81 76 75 74 75 74 71 72 72 74 74 74 75 75 75
36 38 37 44 44 42 45 50 55 57 59 60 62 65 68 67 68 68 67 66 64 63 64 63 65 67 69 71 73 74 76 79
32 35 36 40 43 38 47 48 52 51 51 55 55 57 58 58 56 55 54 56 55 54 57 62 64 67 70 72 72 75 77 79
43 38 37 39 42 42 43 48 51 52 51 51 51 47 45 48 50 50 50 50 53 57 62 66 69 72 74 76 77 77 77 77
38 41 39 38 40 37 39 43 43 44 45 40 41 42 43 42 44 48 52 56 60 62 67 69 72 75 78 78 78 79 79 80
33 33 33 32 31 33 34 35 35 36 39 41 40 39 41 44 46 51 55 58 62 67 71 75 79 82 81 79 79 81 83 87
26 29 26 27 27 28 29 33 36 38 38 41 42 44 49 51 54 58 62 66 70 75 79 82 85 82 82 82 84 89 94 96
30 31 24 25 27 28 31 34 37 42 44 45 45 49 54 58 60 64 69 73 77 81 84 85 83 81 85 89 93 96 101 105
34 25 25 28 29 28 31 35 41 46 50 51 51 54 57 61 65 69 73 78 82 86 87 84 84 84 88 95 98 103 108 111
35 29 29 28 30 33 35 40 46 51 55 55 55 58 62 67 69 72 77 83 87 87 85 85 85 90 92 98 103 108 112 110
30 27 29 32 35 38 39 42 48 53 56 56 58 62 67 67 71 77 83 88 89 89 88 87 90 95 100 103 108 112 107 106
29 28 32 37 41 44 46 46 48 53 58 60 63 61 66 71 77 81 86 90 90 91 90 92 94 99 105 109 112 109 107 106
30 33 37 40 44 46 51 50 50 55 64 67 63 66 72 77 82 86 89 92 92 93 92 94 98 104 108 112 108 105 105 107
34 36 40 44 47 50 52 54 58 62 67 68 66 73 78 84 87 89 95 93 93 94 96 100 104 109 111 107 104 104 105 106
35 38 41 44 48 52 56 60 64 65 66 70 74 77 84 87 92 95 98 95 96 97 102 107 108 108 105 104 103 105 104 103
42 44 47 48 50 55 59 62 65 69 73 77 80 84 90 91 94 98 97 98 98 104 108 109 107 103 102 104 106 104 103 101
53 51 52 56 57 58 61 66 68 74 80 84 87 91 92 96 99 98 99 101 106 110 111 107 103 103 103 105 102 101 97 96
58 60 60 60 60 64 69 71 75 80 85 89 93 95 97 100 100 101 103 109 111 110 108 106 103 105 105 104 103 99 97 93
57 63 66 67 69 72 74 76 81 86 90 93 95 97 99 99 102 106 110 112 111 109 108 107 104 105 105 102 98 97 95 91
Wind_Direction
254 257 257 257 251 252 255 264 260 258 264 265 265 269 272 271 273 277 280 283 283 283 286 288 288 289 290 292 292 292 292 293
253 257 254 261 257 255 251 264 264 265 268 274 273 273 274 275 276 277 282 283 284 284 286 291 295 297 296 296 295 295 294 292
255 255 256 259 264 260 264 264 268 270 271 273 273 274 277 279 280 281 281 283 288 295 299 300 299 300 302 300 297 295 295 296
265 264 260 262 265 267 266 269 270 273 274 275 276 278 276 276 277 282 288 293 295 295 298 304 307 307 307 306 303 302 299 297
269 271 270 270 269 266 267 267 268 269 273 273 268 273 279 284 290 294 295 298 301 305 307 307 306 306 305 304 301 300 300 299
267 275 277 274 275 275 271 271 272 268 268 273 276 279 281 287 292 296 298 301 305 305 305 306 307 307 306 304 304 304 303 303
288 287 279 276 274 274 272 271 270 272 277 279 283 285 288 291 293 296 299 302 305 306 307 308 309 308 307 308 308 308 307 306
283 281 273 272 273 275 274 281 286 287 287 287 289 294 295 295 299 304 307 307 308 309 309 310 310 310 310 309 308 309 309 308
279 273 269 271 274 277 288 294 296 297 296 296 299 300 301 302 305 308 308 309 309 309 310 310 310 309 309 309 310 310 310 311
276 278 277 279 283 286 291 298 303 305 304 303 302 300 300 303 306 307 309 310 312 312 311 309 308 309 310 310 310 310 311 310
269 274 281 286 287 292 298 302 305 304 303 301 300 300 302 305 307 309 311 311 312 311 310 309 308 309 310 310 311 312 310 309
264 272 285 293 298 300 302 304 304 303 302 305 306 306 306 308 310 311 312 313 312 311 311 309 309 309 309 310 311 312 310 310
283 291 295 296 297 298 302 303 303 302 303 306 306 305 307 309 311 311 314 313 312 312 311 310 308 309 309 310 311 310 309 309
291 295 297 298 299 300 301 301 302 302 304 306 307 307 309 310 310 311 312 312 311 311 311 310 311 311 311 312 311 312 310 309
290 291 295 297 299 301 301 301 303 305 308 310 310 311 312 311 311 311 313 312 311 311 311 312 312 313 312 310 311 311 312 312
296 297 299 300 300 298 300 303 306 308 311 312 312 312 312 312 311 311 311 311 312 312 313 313 314 312 311 314 314 313 312 310
301 301 302 303 303 302 302 303 306 311 313 312 312 312 311 312 312 311 312 312 313 315 315 314 314 315 313 312 314 316 314 312
303 306 306 304 302 304 307 308 310 311 313 313 313 313 312 312 312 312 313 314 315 315 315 316 316 315 316 316 316 314 312 311
301 306 304 304 307 308 310 311 311 312 312 312 312 311 311 312 312 314 315 315 316 316 316 315 315 316 316 315 314 314 312 311
Height
10682 10686 10686 10680 10684 10679 10681 10676 10677 10674 10670 10666 10666 10662 10658 10653 10650 10643 10643 10635 10629 10620 10614 10606 10599 10593 10585 10578 10570 10562 10553 10546
10669 10671 10674 10668 10668 10677 10673 10666 10663 10663 10661 10657 10656 10652 10644 10643 10638 10633 10629 10621 10615 10610 10602 10595 10587 10578 10571 10563 10554 10546 10537 10529
10662 10663 10664 10662 10658 10664 10661 10658 10651 10651 10651 10647 10643 10639 10634 10630 10625 10621 10619 10609 10604 10594 10587 10581 10575 10565 10555 10547 10540 10531 10522 10512
10651 10651 10653 10653 10652 10653 10650 10646 10643 10641 10639 10637 10632 10629 10625 10620 10615 10610 10602 10598 10591 10587 10577 10567 10558 10549 10538 10527 10519 10510 10502 10492
10644 10642 10643 10644 10644 10647 10642 10638 10636 10633 10629 10628 10623 10621 10615 10610 10604 10596 10589 10583 10575 10567 10560 10553 10545 10535 10523 10513 10502 10491 10481 10473
10639 10636 10635 10634 10633 10632 10632 10629 10628 10625 10622 10618 10614 10610 10605 10599 10594 10586 10579 10572 10565 10556 10547 10537 10526 10515 10503 10494 10483 10470 10460 10450
10631 10630 10629 10625 10625 10625 10623 10623 10621 10617 10613 10609 10604 10597 10590 10584 10579 10572 10565 10558 10550 10540 10529 10518 10507 10495 10480 10471 10461 10449 10437 10426
10625 10624 10620 10620 10620 10619 10617 10614 10610 10605 10600 10597 10593 10586 10578 10570 10563 10556 10546 10538 10530 10519 10508 10497 10485 10475 10460 10448 10436 10425 10412 10399
10617 10617 10616 10614 10613 10613 10610 10605 10599 10592 10585 10581 10577 10570 10563 10556 10549 10541 10531 10521 10512 10501 10489 10477 10465 10456 10444 10427 10413 10400 10385 10369
10610 10609 10606 10606 10605 10603 10601 10596 10588 10580 10572 10568 10562 10556 10549 10542 10534 10525 10515 10503 10493 10482 10471 10459 10446 10433 10423 10408 10393 10376 10360 10346
10607 10605 10601 10598 10595 10593 10592 10588 10579 10570 10562 10556 10549 10543 10535 10528 10519 10509 10498 10486 10474 10462 10452 10440 10426 10411 10398 10385 10369 10354 10337 10320
10600 10599 10595 10590 10585 10579 10577 10577 10571 10560 10549 10544 10537 10530 10521 10513 10504 10493 10482 10468 10456 10442 10432 10420 10407 10391 10376 10360 10345 10325 10309 10294
10590 10589 10585 10582 10577 10571 10564 10562 10559 10551 10538 10530 10524 10516 10507 10496 10486 10476 10465 10451 10437 10423 10412 10399 10387 10369 10354 10337 10321 10306 10289 10271
10582 10580 10575 10570 10566 10560 10553 10547 10543 10536 10526 10516 10511 10500 10490 10479 10467 10458 10448 10434 10420 10406 10391 10377 10364 10346 10327 10311 10295 10278 10260 10242
10574 10572 10568 10564 10557 10548 10540 10533 10526 10518 10510 10502 10494 10486 10473 10462 10449 10436 10423 10411 10399 10386 10370 10354 10339 10323 10301 10287 10274 10256 10237 10218
10563 10561 10555 10550 10545 10538 10529 10519 10511 10503 10494 10485 10478 10467 10454 10443 10430 10417 10402 10389 10375 10361 10346 10330 10312 10298 10279 10261 10246 10229 10210 10193
10543 10544 10540 10535 10529 10522 10515 10507 10498 10489 10478 10466 10457 10446 10434 10420 10405 10392 10379 10365 10350 10333 10317 10302 10288 10270 10256 10236 10220 10204 10186 10170
10528 10523 10522 10517 10511 10505 10498 10490 10481 10471 10461 10448 10434 10423 10409 10396 10381 10367 10353 10338 10323 10307 10292 10276 10262 10244 10228 10210 10194 10180 10161 10145
10523 10513 10500 10496 10493 10487 10480 10472 10463 10453 10443 10431 10418 10403 10389 10374 10360 10346 10330 10315 10299 10282 10265 10250 10235 10220 10202 10186 10170 10155 10138 10122